Météo par heure à Allmen

Ce jour, 14 Mai, Vendredi

Heure Température Précipitation Vent Pression Humidité
00:00 +2°C° 0 mm 1 m/s 639 mmHg 87%
01:00 +2°C° 0 mm 1 m/s 639 mmHg 86%
02:00 +2°C° 0 mm 1 m/s 638 mmHg 87%
03:00 +1°C° 0 mm 1 m/s 638 mmHg 87%
04:00 0°C° 0 mm 1 m/s 638 mmHg 87%
05:00 +2°C° 0 mm 1 m/s 638 mmHg 82%
06:00 +3°C° 0 mm 1 m/s 639 mmHg 77%
07:00 +3°C° 0 mm 0 m/s 639 mmHg 71%
08:00 +6°C° 0 mm 1 m/s 639 mmHg 65%
09:00 +8°C° 0 mm 1 m/s 640 mmHg 58%
10:00 +9°C° 0 mm 1 m/s 640 mmHg 51%
11:00 +10°C° 0.1 mm 1 m/s 640 mmHg 50%
12:00 +9°C° 0.1 mm 2 m/s 640 mmHg 49%
13:00 +10°C° 0.1 mm 2 m/s 640 mmHg 48%
14:00 +9°C° 0.4 mm 2 m/s 640 mmHg 55%
15:00 +9°C° 0.4 mm 2 m/s 640 mmHg 62%
16:00 +8°C° 0.4 mm 3 m/s 639 mmHg 69%
17:00 +7°C° 1.4 mm 2 m/s 640 mmHg 77%
18:00 +5°C° 1.4 mm 2 m/s 640 mmHg 85%
19:00 +4°C° 1.4 mm 2 m/s 640 mmHg 94%
20:00 +3°C° 1 mm 2 m/s 640 mmHg 94%
21:00 +2°C° 1 mm 2 m/s 641 mmHg 95%
22:00 +3°C° 1 mm 1 m/s 641 mmHg 96%
23:00 +3°C° 0.1 mm 1 m/s 641 mmHg 95%

Demain, 15 Mai, Samedi

Heure Température Précipitation Vent Pression Humidité
00:00 +2°C° 0.1 mm 1 m/s 641 mmHg 95%
01:00 +2°C° 0.1 mm 1 m/s 641 mmHg 94%
02:00 +2°C° 0 mm 1 m/s 640 mmHg 94%
03:00 +1°C° 0 mm 1 m/s 640 mmHg 93%
04:00 +1°C° 0 mm 1 m/s 639 mmHg 93%
05:00 +2°C° 0 mm 1 m/s 640 mmHg 92%
06:00 +3°C° 0 mm 1 m/s 640 mmHg 90%
07:00 +4°C° 0 mm 1 m/s 640 mmHg 88%
08:00 +5°C° 0 mm 1 m/s 640 mmHg 83%
09:00 +6°C° 0 mm 1 m/s 639 mmHg 79%
10:00 +7°C° 0 mm 1 m/s 639 mmHg 74%
11:00 +7°C° 0.1 mm 1 m/s 639 mmHg 72%
12:00 +8°C° 0.1 mm 1 m/s 639 mmHg 71%
13:00 +7°C° 0.1 mm 2 m/s 638 mmHg 70%
14:00 +6°C° 0.7 mm 2 m/s 638 mmHg 79%
15:00 +5°C° 0.7 mm 2 m/s 638 mmHg 87%
16:00 +4°C° 0.7 mm 2 m/s 638 mmHg 96%
17:00 +3°C° 1.6 mm 2 m/s 638 mmHg 96%
18:00 +3°C° 1.6 mm 2 m/s 638 mmHg 97%
19:00 +3°C° 1.6 mm 2 m/s 639 mmHg 97%
20:00 +2°C° 1.1 mm 2 m/s 639 mmHg 97%
21:00 +2°C° 1.1 mm 2 m/s 639 mmHg 97%
22:00 +2°C° 1.1 mm 2 m/s 640 mmHg 97%
23:00 +2°C° 0 mm 2 m/s 639 mmHg 97%

Après-demain, 16 Mai, Dimanche

Heure Température Précipitation Vent Pression Humidité
00:00 +1°C° 0 mm 2 m/s 639 mmHg 96%
01:00 +1°C° 0 mm 2 m/s 639 mmHg 96%
02:00 +2°C° 0.3 mm 1 m/s 639 mmHg 96%
03:00 +2°C° 0.3 mm 1 m/s 639 mmHg 96%
04:00 +2°C° 0.3 mm 1 m/s 639 mmHg 95%
05:00 +3°C° 0 mm 1 m/s 639 mmHg 93%
06:00 +4°C° 0 mm 1 m/s 639 mmHg 92%
07:00 +4°C° 0 mm 1 m/s 639 mmHg 90%
08:00 +5°C° 0.2 mm 1 m/s 639 mmHg 86%
09:00 +6°C° 0.2 mm 1 m/s 639 mmHg 81%
10:00 +6°C° 0.2 mm 2 m/s 640 mmHg 77%
11:00 +7°C° 0.3 mm 2 m/s 640 mmHg 75%
12:00 +8°C° 0.3 mm 2 m/s 640 mmHg 73%
13:00 +8°C° 0.3 mm 2 m/s 639 mmHg 72%
14:00 +8°C° 1.1 mm 2 m/s 639 mmHg 78%
15:00 +7°C° 1.1 mm 2 m/s 639 mmHg 85%
16:00 +6°C° 1.1 mm 2 m/s 639 mmHg 92%
17:00 +6°C° 0.6 mm 2 m/s 639 mmHg 92%
18:00 +6°C° 0.6 mm 2 m/s 639 mmHg 92%
19:00 +5°C° 0.6 mm 2 m/s 639 mmHg 92%
20:00 +5°C° 0.4 mm 2 m/s 639 mmHg 93%
21:00 +4°C° 0.4 mm 2 m/s 639 mmHg 93%
22:00 +5°C° 0.4 mm 1 m/s 640 mmHg 94%
23:00 +4°C° 0.2 mm 1 m/s 639 mmHg 94%

17 Mai, Lundi

Heure Température Précipitation Vent Pression Humidité
00:00 +4°C° 0.2 mm 1 m/s 639 mmHg 94%
01:00 +3°C° 0.2 mm 1 m/s 639 mmHg 94%
02:00 +3°C° 0.2 mm 1 m/s 639 mmHg 95%
03:00 +3°C° 0.2 mm 2 m/s 639 mmHg 95%
04:00 +3°C° 0.2 mm 2 m/s 639 mmHg 96%
05:00 +3°C° 0.4 mm 2 m/s 640 mmHg 95%
06:00 +3°C° 0.4 mm 2 m/s 640 mmHg 95%
07:00 +3°C° 0.4 mm 2 m/s 640 mmHg 94%
08:00 +3°C° 0.1 mm 2 m/s 640 mmHg 91%
09:00 +3°C° 0.1 mm 2 m/s 641 mmHg 88%
10:00 +4°C° 0.1 mm 2 m/s 641 mmHg 84%
11:00 +4°C° 0.2 mm 3 m/s 641 mmHg 80%
12:00 +4°C° 0.2 mm 3 m/s 641 mmHg 77%
13:00 +5°C° 0.2 mm 3 m/s 641 mmHg 73%
14:00 +5°C° 0.3 mm 3 m/s 641 mmHg 75%
15:00 +5°C° 0.3 mm 3 m/s 641 mmHg 76%
16:00 +6°C° 0.3 mm 2 m/s 641 mmHg 77%
17:00 +5°C° 0.4 mm 2 m/s 641 mmHg 82%
18:00 +5°C° 0.4 mm 2 m/s 641 mmHg 86%
19:00 +4°C° 0.4 mm 2 m/s 641 mmHg 90%
20:00 +3°C° 0.3 mm 2 m/s 641 mmHg 92%
21:00 +2°C° 0.3 mm 2 m/s 642 mmHg 94%
22:00 +1°C° 0.3 mm 3 m/s 642 mmHg 96%
23:00 +1°C° 0.5 mm 3 m/s 642 mmHg 96%

18 Mai, Mardi

Heure Température Précipitation Vent Pression Humidité
00:00 +2°C° 0.5 mm 2 m/s 642 mmHg 96%
01:00 +2°C° 0.5 mm 2 m/s 642 mmHg 96%
02:00 +2°C° 0.4 mm 2 m/s 642 mmHg 96%
03:00 +2°C° 0.4 mm 2 m/s 642 mmHg 97%
04:00 +2°C° 0.4 mm 2 m/s 642 mmHg 97%
05:00 +1°C° 1.3 mm 2 m/s 643 mmHg 97%
06:00 0°C° 1.3 mm 3 m/s 644 mmHg 97%
07:00 0°C° 1.3 mm 3 m/s 644 mmHg 98%
08:00 +1°C° 0.3 mm 3 m/s 645 mmHg 94%
09:00 +2°C° 0.3 mm 3 m/s 645 mmHg 90%
10:00 +2°C° 0.3 mm 3 m/s 646 mmHg 86%
11:00 +4°C° 0.2 mm 3 m/s 646 mmHg 77%
12:00 +5°C° 0.2 mm 3 m/s 646 mmHg 68%
13:00 +7°C° 0.2 mm 3 m/s 646 mmHg 60%
14:00 +8°C° 0.2 mm 3 m/s 646 mmHg 58%
15:00 +8°C° 0.2 mm 3 m/s 646 mmHg 56%
16:00 +9°C° 0.2 mm 3 m/s 646 mmHg 54%
17:00 +7°C° 0.2 mm 2 m/s 645 mmHg 63%
18:00 +6°C° 0.2 mm 2 m/s 645 mmHg 72%
19:00 +6°C° 0.2 mm 1 m/s 645 mmHg 82%
20:00 +3°C° 0.1 mm 2 m/s 645 mmHg 85%
21:00 +2°C° 0.1 mm 2 m/s 645 mmHg 87%
22:00 +1°C° 0.1 mm 2 m/s 645 mmHg 90%
23:00 +1°C° 0 mm 2 m/s 645 mmHg 90%

19 Mai, Mercredi

Heure Température Précipitation Vent Pression Humidité
00:00 +1°C° 0 mm 2 m/s 645 mmHg 90%
01:00 +1°C° 0 mm 2 m/s 645 mmHg 90%
02:00 +2°C° 0.1 mm 2 m/s 645 mmHg 91%
03:00 +2°C° 0.1 mm 2 m/s 645 mmHg 93%
04:00 +2°C° 0.1 mm 2 m/s 644 mmHg 94%
05:00 +2°C° 0.4 mm 2 m/s 645 mmHg 94%
06:00 +2°C° 0.4 mm 2 m/s 645 mmHg 94%
07:00 +3°C° 0.4 mm 1 m/s 645 mmHg 95%
08:00 +3°C° 0.4 mm 1 m/s 645 mmHg 94%
09:00 +3°C° 0.4 mm 1 m/s 645 mmHg 94%
10:00 +4°C° 0.4 mm 1 m/s 645 mmHg 94%
11:00 +4°C° 0.7 mm 1 m/s 645 mmHg 94%
12:00 +4°C° 0.7 mm 1 m/s 644 mmHg 95%
13:00 +3°C° 0.7 mm 2 m/s 644 mmHg 95%
14:00 +4°C° 0.8 mm 1 m/s 644 mmHg 95%
15:00 +4°C° 0.8 mm 1 m/s 644 mmHg 95%
16:00 +4°C° 0.8 mm 1 m/s 644 mmHg 95%
17:00 +4°C° 0.7 mm 1 m/s 644 mmHg 96%
18:00 +4°C° 0.7 mm 1 m/s 644 mmHg 96%
19:00 +3°C° 0.7 mm 1 m/s 643 mmHg 97%
20:00 +3°C° 0.9 mm 1 m/s 643 mmHg 97%
21:00 +3°C° 0.9 mm 1 m/s 643 mmHg 97%
22:00 +3°C° 0.9 mm 1 m/s 643 mmHg 97%
23:00 +3°C° 2 mm 1 m/s 643 mmHg 97%
Voir plus

Nous avons besoin de votre consentement

Meteoprog et ses fournisseurs de services peuvent stocker et accéder à des données personnelles telles que des cookies, des identifiants d'appareils ou d'autres technologies similaires sur votre appareil et traiter ces données pour personnaliser le contenu et les publicités, ainsi que pour fournir des fonctionnalités de médias sociaux et analyser le trafic.

  • Stocker et/ou accéder à des informations sur votre appareil

    Des cookies, des identifiants d'appareils ou d'autres informations peuvent être stockés ou accessibles sur votre appareil aux fins indiquées ci-dessus.

  • Annonces et contenus personnalisés, mesure des annonces et des contenus, connaissance de l'audience et développement de produits

    Les annonces et le contenu peuvent être personnalisés en fonction d'un profil. D'autres données peuvent être ajoutées pour mieux personnaliser les annonces et le contenu. Les performances des publicités et du contenu peuvent être mesurées. Il est possible d'obtenir des informations sur le public qui a vu les publicités et le contenu. Ces données peuvent être utilisées pour développer ou améliorer l'expérience de l'utilisateur, les systèmes et les logiciels.

En cliquant sur "J'accepte", vous autorisez l'utilisation de cookies, des identifiants d'appareils, des balises web ou d'autres technologies similaires. Vos paramètres peuvent être modifiés dans le navigateur de votre appareil.

Dans certains cas, des intérêts légitimes peuvent être invoqués plutôt qu'un consentement. Vous pouvez en savoir plus à ce sujet dans notre Politique de confidentialité et de cookies.